| time (UTC) | temp C | wind direction | speed KPH | gust KPH | rain 1hr cm | rain 24hr cm | rain mn cm | humidity % | barometer mb |
| 20260504000151 | 10 | 5 | 0.0 | 0.0 | 0.00 | 0.00 | 0.00 | 52 | 1010.1 |
| 20260503235649 | 11 | 1 | 0.0 | 0.0 | 0.00 | 0.00 | 0.00 | 47 | 1010.1 |
| 20260503235145 | 11 | 10 | 3.2 | 3.2 | 0.00 | 0.00 | 0.00 | 49 | 1010.1 |
| 20260503234643 | 12 | 349 | 0.0 | 0.0 | 0.00 | 0.00 | 0.00 | 47 | 1010.0 |
| 20260503234141 | 12 | 352 | 0.0 | 0.0 | 0.00 | 0.00 | 0.00 | 41 | 1009.9 |
| 20260503233638 | 12 | 18 | 1.6 | 3.2 | 0.00 | 0.00 | 0.00 | 37 | 1010.2 |
| 20260503233133 | 13 | 347 | 0.0 | 1.6 | 0.00 | 0.00 | 0.00 | 40 | 1010.3 |
| 20260503232630 | 13 | 7 | 0.0 | 0.0 | 0.00 | 0.00 | 0.00 | 38 | 1010.1 |
| 20260503232128 | 13 | 3 | 1.6 | 3.2 | 0.00 | 0.00 | 0.00 | 37 | 1010.3 |
| 20260503231626 | 13 | 341 | 1.6 | 1.6 | 0.00 | 0.00 | 0.00 | 34 | 1009.9 |
| 20260503231122 | 13 | 344 | 3.2 | 4.8 | 0.00 | 0.00 | 0.00 | 34 | 1010.2 |
| 20260503230619 | 13 | 340 | 0.0 | 1.6 | 0.00 | 0.00 | 0.00 | 33 | 1010.1 |
| 20260503230116 | 13 | 350 | 0.0 | 1.6 | 0.00 | 0.00 | 0.00 | 35 | 1010.1 |
| 20260503225614 | 14 | 333 | 3.2 | 3.2 | 0.00 | 0.00 | 0.00 | 36 | 1010.0 |
| 20260503225113 | 14 | 295 | 3.2 | 3.2 | 0.00 | 0.00 | 0.00 | 34 | 1010.0 |
| 20260503224611 | 14 | 1 | 0.0 | 0.0 | 0.00 | 0.00 | 0.00 | 33 | 1009.9 |
| 20260503224109 | 14 | 341 | 1.6 | 1.6 | 0.00 | 0.00 | 0.00 | 35 | 1009.9 |
| 20260503223607 | 15 | 309 | 3.2 | 4.8 | 0.00 | 0.00 | 0.00 | 34 | 1009.9 |
| 20260503223102 | 15 | 251 | 3.2 | 4.8 | 0.00 | 0.00 | 0.00 | 34 | 1009.9 |
| 20260503222600 | 15 | 286 | 3.2 | 4.8 | 0.00 | 0.00 | 0.00 | 34 | 1009.9 |
| 20260503222058 | 15 | 345 | 0.0 | 0.0 | 0.00 | 0.00 | 0.00 | 35 | 1009.8 |
| 20260503221555 | 15 | 296 | 4.8 | 6.4 | 0.00 | 0.00 | 0.00 | 34 | 1009.8 |
| 20260503221053 | 15 | 5 | 1.6 | 1.6 | 0.00 | 0.00 | 0.00 | 35 | 1009.9 |
| 20260503220549 | 15 | 356 | 0.0 | 0.0 | 0.00 | 0.00 | 0.00 | 34 | 1009.8 |
| 20260503220046 | 15 | 300 | 1.6 | 1.6 | 0.00 | 0.00 | 0.00 | 32 | 1009.9 |
| 20260503215543 | 15 | 11 | 3.2 | 3.2 | 0.00 | 0.00 | 0.00 | 32 | 1009.8 |
| 20260503215040 | 15 | 355 | 1.6 | 3.2 | 0.00 | 0.00 | 0.00 | 34 | 1010.0 |
| 20260503214538 | 15 | 281 | 4.8 | 4.8 | 0.00 | 0.00 | 0.00 | 33 | 1010.0 |
| 20260503214034 | 15 | 339 | 3.2 | 4.8 | 0.00 | 0.00 | 0.00 | 34 | 1009.8 |
| 20260503213533 | 15 | 314 | 3.2 | 3.2 | 0.00 | 0.00 | 0.00 | 33 | 1010.2 |
| 20260503213029 | 15 | 343 | 1.6 | 3.2 | 0.00 | 0.00 | 0.00 | 31 | 1010.0 |
| 20260503212527 | 15 | 210 | 3.2 | 4.8 | 0.00 | 0.00 | 0.00 | 31 | 1010.1 |
| 20260503212024 | 15 | 0 | 1.6 | 1.6 | 0.00 | 0.00 | 0.00 | 30 | 1009.9 |
| 20260503211521 | 15 | 264 | 4.8 | 6.4 | 0.00 | 0.00 | 0.00 | 34 | 1009.9 |
| 20260503211016 | 15 | 319 | 1.6 | 1.6 | 0.00 | 0.00 | 0.00 | 33 | 1009.7 |
| 20260503210513 | 15 | 260 | 3.2 | 3.2 | 0.00 | 0.00 | 0.00 | 34 | 1010.1 |
| 20260503210009 | 15 | 246 | 3.2 | 3.2 | 0.00 | 0.00 | 0.00 | 34 | 1010.1 |
| 20260503205506 | 16 | 307 | 0.0 | 1.6 | 0.00 | 0.00 | 0.00 | 32 | 1010.0 |
| 20260503205002 | 16 | 180 | 6.4 | 9.7 | 0.00 | 0.00 | 0.00 | 35 | 1010.1 |
| 20260503204459 | 15 | 226 | 3.2 | 3.2 | 0.00 | 0.00 | 0.00 | 35 | 1010.0 |
| 20260503203956 | 15 | 298 | 3.2 | 3.2 | 0.00 | 0.00 | 0.00 | 36 | 1009.9 |
| 20260503203454 | 15 | 213 | 6.4 | 9.7 | 0.00 | 0.00 | 0.00 | 33 | 1010.0 |
| 20260503202950 | 15 | 306 | 6.4 | 11.3 | 0.00 | 0.00 | 0.00 | 34 | 1010.3 |
| 20260503202448 | 15 | 294 | 1.6 | 3.2 | 0.00 | 0.00 | 0.00 | 34 | 1010.2 |
| 20260503201947 | 15 | 12 | 3.2 | 3.2 | 0.00 | 0.00 | 0.00 | 32 | 1010.2 |
| 20260503201444 | 15 | 293 | 3.2 | 4.8 | 0.00 | 0.00 | 0.00 | 34 | 1010.5 |
| 20260503200941 | 15 | 215 | 3.2 | 3.2 | 0.00 | 0.00 | 0.00 | 33 | 1010.4 |
| 20260503200437 | 15 | 20 | 1.6 | 1.6 | 0.00 | 0.00 | 0.00 | 31 | 1010.4 |
| 20260503195934 | 15 | 12 | 4.8 | 6.4 | 0.00 | 0.00 | 0.00 | 34 | 1010.5 |
| 20260503195431 | 15 | 337 | 6.4 | 11.3 | 0.00 | 0.00 | 0.00 | 34 | 1010.4 |
| 20260503194927 | 15 | 247 | 3.2 | 3.2 | 0.00 | 0.00 | 0.00 | 35 | 1010.6 |
| 20260503194425 | 15 | 201 | 9.7 | 11.3 | 0.00 | 0.00 | 0.00 | 33 | 1010.5 |
| 20260503193920 | 15 | 349 | 4.8 | 4.8 | 0.00 | 0.00 | 0.00 | 33 | 1010.6 |
| 20260503193416 | 15 | 30 | 3.2 | 4.8 | 0.00 | 0.00 | 0.00 | 32 | 1010.8 |
| 20260503192911 | 15 | 281 | 9.7 | 14.5 | 0.00 | 0.00 | 0.00 | 33 | 1011.0 |
| 20260503192408 | 15 | 317 | 3.2 | 4.8 | 0.00 | 0.00 | 0.00 | 31 | 1011.0 |
| 20260503191904 | 15 | 274 | 3.2 | 3.2 | 0.00 | 0.00 | 0.00 | 33 | 1010.9 |
| 20260503191401 | 14 | 326 | 3.2 | 4.8 | 0.00 | 0.00 | 0.00 | 33 | 1011.1 |
| 20260503190857 | 15 | 359 | 3.2 | 4.8 | 0.00 | 0.00 | 0.00 | 36 | 1011.1 |
| 20260503190355 | 15 | 320 | 3.2 | 6.4 | 0.00 | 0.00 | 0.00 | 31 | 1011.3 |
| 20260503185852 | 15 | 343 | 4.8 | 9.7 | 0.00 | 0.00 | 0.00 | 33 | 1011.3 |
| 20260503185348 | 15 | 254 | 3.2 | 4.8 | 0.00 | 0.00 | 0.00 | 31 | 1011.4 |
| 20260503184848 | 15 | 321 | 0.0 | 1.6 | 0.00 | 0.00 | 0.00 | 35 | 1011.5 |
| 20260503184344 | 14 | 286 | 3.2 | 4.8 | 0.00 | 0.00 | 0.00 | 40 | 1011.5 |
| 20260503183840 | 14 | 210 | 1.6 | 3.2 | 0.00 | 0.00 | 0.00 | 33 | 1011.6 |
| 20260503183337 | 15 | 332 | 4.8 | 6.4 | 0.00 | 0.00 | 0.00 | 34 | 1011.6 |
| 20260503182835 | 14 | 220 | 8.0 | 11.3 | 0.00 | 0.00 | 0.00 | 32 | 1011.4 |
| 20260503182334 | 14 | 270 | 3.2 | 4.8 | 0.00 | 0.00 | 0.00 | 34 | 1011.6 |
| 20260503181830 | 14 | 217 | 6.4 | 9.7 | 0.00 | 0.00 | 0.00 | 34 | 1011.6 |
| 20260503181327 | 13 | 358 | 6.4 | 9.7 | 0.00 | 0.00 | 0.00 | 34 | 1011.5 |
| 20260503180824 | 13 | 348 | 4.8 | 4.8 | 0.00 | 0.00 | 0.00 | 35 | 1011.6 |
| 20260503180322 | 13 | 236 | 6.4 | 9.7 | 0.00 | 0.00 | 0.00 | 33 | 1011.4 |
| 20260503175818 | 14 | 54 | 3.2 | 3.2 | 0.00 | 0.00 | 0.00 | 32 | 1011.6 |
| 20260503175316 | 13 | 279 | 6.4 | 9.7 | 0.00 | 0.00 | 0.00 | 34 | 1012.0 |
| 20260503174811 | 13 | 321 | 4.8 | 9.7 | 0.00 | 0.00 | 0.00 | 36 | 1012.2 |
| 20260503174310 | 13 | 320 | 8.0 | 12.9 | 0.00 | 0.00 | 0.00 | 38 | 1012.0 |
| 20260503173805 | 13 | 359 | 8.0 | 11.3 | 0.00 | 0.00 | 0.00 | 35 | 1011.8 |
| 20260503173301 | 13 | 312 | 0.0 | 1.6 | 0.00 | 0.00 | 0.00 | 37 | 1011.8 |
| 20260503172758 | 13 | 347 | 4.8 | 4.8 | 0.00 | 0.00 | 0.00 | 38 | 1012.2 |
| 20260503172256 | 13 | 256 | 3.2 | 4.8 | 0.00 | 0.00 | 0.00 | 39 | 1012.1 |
| 20260503171752 | 12 | 6 | 1.6 | 1.6 | 0.00 | 0.00 | 0.00 | 42 | 1012.3 |
| 20260503171249 | 12 | 36 | 6.4 | 11.3 | 0.00 | 0.00 | 0.00 | 38 | 1012.5 |
| 20260503170746 | 13 | 357 | 4.8 | 4.8 | 0.00 | 0.00 | 0.00 | 39 | 1012.5 |
| 20260503170243 | 13 | 148 | 3.2 | 4.8 | 0.00 | 0.00 | 0.00 | 42 | 1012.2 |
| 20260503160205 | 11 | 178 | 4.8 | 6.4 | 0.00 | 0.00 | 0.00 | 40 | 1012.8 |
| 20260503150635 | 10 | 333 | 3.2 | 3.2 | 0.00 | 0.00 | 0.00 | 46 | 1013.0 |
| 20260503150131 | 10 | 3 | 0.0 | 1.6 | 0.00 | 0.00 | 0.00 | 53 | 1013.0 |
| 20260503131025 | 7 | 272 | 6.4 | 6.4 | 0.00 | 0.00 | 0.00 | 64 | 1013.1 |
| 20260503130522 | 7 | 194 | 3.2 | 3.2 | 0.00 | 0.00 | 0.00 | 63 | 1012.9 |
| 20260503110413 | 2 | 24 | 1.6 | 1.6 | 0.00 | 0.00 | 0.00 | 79 | 1012.3 |
| 20260503090303 | 1 | 21 | 0.0 | 0.0 | 0.00 | 0.00 | 0.00 | 88 | 1011.2 |
| 20260503081231 | 3 | 326 | 1.6 | 1.6 | 0.00 | 0.00 | 0.00 | 77 | 1011.1 |
| 20260503080727 | 3 | 3 | 0.0 | 0.0 | 0.00 | 0.00 | 0.00 | 76 | 1011.1 |
| 20260503080224 | 3 | 43 | 1.6 | 1.6 | 0.00 | 0.00 | 0.00 | 78 | 1011.1 |
| 20260503072701 | 4 | 13 | 1.6 | 1.6 | 0.00 | 0.00 | 0.00 | 74 | 1010.5 |
| 20260503072157 | 4 | 184 | 3.2 | 4.8 | 0.00 | 0.00 | 0.00 | 75 | 1010.5 |
| 20260503071654 | 4 | 350 | 0.0 | 0.0 | 0.00 | 0.00 | 0.00 | 78 | 1010.4 |
| 20260503071151 | 3 | 36 | 1.6 | 1.6 | 0.00 | 0.00 | 0.00 | 76 | 1010.8 |
| 20260503070648 | 4 | 328 | 0.0 | 0.0 | 0.00 | 0.00 | 0.00 | 75 | 1010.4 |
| 20260503070146 | 4 | 12 | 0.0 | 0.0 | 0.00 | 0.00 | 0.00 | 75 | 1010.4 |
| 20260503060110 | 3 | 298 | 1.6 | 1.6 | 0.00 | 0.00 | 0.00 | 80 | 1010.5 |
| 20260503055102 | 2 | 357 | 0.0 | 0.0 | 0.00 | 0.00 | 0.00 | 80 | 1010.4 |
| 20260503054557 | 2 | 7 | 0.0 | 0.0 | 0.00 | 0.00 | 0.00 | 80 | 1010.5 |
| 20260503054055 | 2 | 3 | 1.6 | 1.6 | 0.00 | 0.00 | 0.00 | 84 | 1010.4 |
| 20260503053553 | 2 | 337 | 0.0 | 1.6 | 0.00 | 0.00 | 0.00 | 82 | 1010.6 |
| 20260503053050 | 2 | 1 | 0.0 | 0.0 | 0.00 | 0.00 | 0.00 | 84 | 1010.8 |
| 20260503052547 | 2 | 352 | 0.0 | 0.0 | 0.00 | 0.00 | 0.00 | 83 | 1010.6 |
| 20260503052043 | 3 | 344 | 0.0 | 0.0 | 0.00 | 0.00 | 0.00 | 81 | 1010.8 |
| 20260503051539 | 3 | 7 | 0.0 | 0.0 | 0.00 | 0.00 | 0.00 | 79 | 1010.6 |
| 20260503051037 | 3 | 354 | 0.0 | 0.0 | 0.00 | 0.00 | 0.00 | 78 | 1010.8 |
| 20260503050532 | 4 | 348 | 0.0 | 0.0 | 0.00 | 0.00 | 0.00 | 76 | 1010.6 |
| 20260503050030 | 4 | 354 | 0.0 | 0.0 | 0.00 | 0.00 | 0.00 | 75 | 1010.8 |
| 20260503045527 | 5 | 35 | 3.2 | 4.8 | 0.00 | 0.00 | 0.00 | 72 | 1010.8 |
| 20260503045024 | 4 | 212 | 1.6 | 3.2 | 0.00 | 0.00 | 0.00 | 74 | 1010.8 |
| 20260503044521 | 5 | 18 | 0.0 | 0.0 | 0.00 | 0.00 | 0.00 | 73 | 1010.9 |
| 20260503044019 | 5 | 16 | 3.2 | 4.8 | 0.00 | 0.00 | 0.00 | 71 | 1010.9 |
| 20260503043514 | 5 | 306 | 6.4 | 6.4 | 0.00 | 0.00 | 0.00 | 71 | 1010.8 |
| 20260503043011 | 4 | 8 | 1.6 | 1.6 | 0.00 | 0.00 | 0.00 | 73 | 1010.9 |
| 20260503042508 | 4 | 245 | 1.6 | 3.2 | 0.00 | 0.00 | 0.00 | 74 | 1010.9 |
| 20260503042004 | 4 | 331 | 1.6 | 1.6 | 0.00 | 0.00 | 0.00 | 75 | 1010.8 |
| 20260503041501 | 5 | 354 | 0.0 | 0.0 | 0.00 | 0.00 | 0.00 | 74 | 1010.9 |
| 20260503040959 | 5 | 15 | 0.0 | 1.6 | 0.00 | 0.00 | 0.00 | 73 | 1010.9 |
| 20260503040456 | 4 | 16 | 0.0 | 0.0 | 0.00 | 0.00 | 0.00 | 74 | 1010.8 |
| 20260503035953 | 4 | 4 | 1.6 | 1.6 | 0.00 | 0.00 | 0.00 | 77 | 1010.8 |
| 20260503035450 | 5 | 4 | 0.0 | 0.0 | 0.00 | 0.00 | 0.00 | 74 | 1010.8 |
| 20260503034948 | 5 | 346 | 1.6 | 1.6 | 0.00 | 0.00 | 0.00 | 72 | 1010.4 |
| 20260503034445 | 5 | 329 | 1.6 | 1.6 | 0.00 | 0.00 | 0.00 | 73 | 1010.8 |
| 20260503033942 | 5 | 7 | 0.0 | 0.0 | 0.00 | 0.00 | 0.00 | 72 | 1010.9 |
| 20260503033439 | 5 | 354 | 0.0 | 0.0 | 0.00 | 0.00 | 0.00 | 72 | 1010.8 |
| 20260503032936 | 5 | 318 | 1.6 | 1.6 | 0.00 | 0.00 | 0.00 | 71 | 1010.9 |
| 20260503032435 | 5 | 8 | 0.0 | 1.6 | 0.00 | 0.00 | 0.00 | 68 | 1011.0 |
| 20260503031932 | 5 | 325 | 1.6 | 3.2 | 0.00 | 0.00 | 0.00 | 69 | 1010.6 |
| 20260503031424 | 5 | 356 | 0.0 | 1.6 | 0.00 | 0.00 | 0.00 | 69 | 1010.9 |
| 20260503030921 | 5 | 7 | 1.6 | 3.2 | 0.00 | 0.00 | 0.00 | 69 | 1010.6 |
| 20260503030417 | 5 | 334 | 1.6 | 1.6 | 0.00 | 0.00 | 0.00 | 69 | 1011.0 |
| 20260503025914 | 6 | 9 | 0.0 | 0.0 | 0.00 | 0.00 | 0.00 | 70 | 1010.9 |
| 20260503025411 | 6 | 9 | 1.6 | 1.6 | 0.00 | 0.00 | 0.00 | 67 | 1010.8 |
| 20260503024908 | 6 | 14 | 3.2 | 3.2 | 0.00 | 0.00 | 0.00 | 67 | 1010.9 |
| 20260503024404 | 6 | 352 | 0.0 | 0.0 | 0.00 | 0.00 | 0.00 | 68 | 1010.9 |
| 20260503023901 | 6 | 4 | 0.0 | 1.6 | 0.00 | 0.00 | 0.00 | 67 | 1011.0 |
| 20260503023358 | 6 | 5 | 0.0 | 0.0 | 0.00 | 0.00 | 0.00 | 66 | 1010.9 |
| 20260503022855 | 6 | 9 | 0.0 | 0.0 | 0.00 | 0.00 | 0.00 | 66 | 1011.0 |
| 20260503022350 | 6 | 353 | 1.6 | 1.6 | 0.00 | 0.00 | 0.00 | 64 | 1010.9 |
| 20260503021847 | 6 | 10 | 1.6 | 1.6 | 0.00 | 0.00 | 0.00 | 63 | 1010.9 |
| 20260503021343 | 7 | 339 | 1.6 | 1.6 | 0.00 | 0.00 | 0.00 | 63 | 1010.8 |
| 20260503020840 | 7 | 0 | 4.8 | 6.4 | 0.00 | 0.00 | 0.00 | 61 | 1011.1 |
| 20260503020338 | 7 | 13 | 1.6 | 1.6 | 0.00 | 0.00 | 0.00 | 62 | 1010.9 |
| 20260503015834 | 7 | 355 | 1.6 | 3.2 | 0.00 | 0.00 | 0.00 | 62 | 1010.6 |
| 20260503015332 | 7 | 9 | 0.0 | 0.0 | 0.00 | 0.00 | 0.00 | 63 | 1010.9 |
| 20260503014827 | 7 | 347 | 3.2 | 4.8 | 0.00 | 0.00 | 0.00 | 62 | 1011.1 |
| 20260503014325 | 7 | 332 | 3.2 | 3.2 | 0.00 | 0.00 | 0.00 | 61 | 1010.8 |
| 20260503013822 | 7 | 349 | 1.6 | 1.6 | 0.00 | 0.00 | 0.00 | 62 | 1010.6 |
| 20260503013320 | 7 | 351 | 1.6 | 1.6 | 0.00 | 0.00 | 0.00 | 61 | 1010.5 |
| 20260503012816 | 7 | 18 | 1.6 | 1.6 | 0.00 | 0.00 | 0.00 | 62 | 1010.8 |
| 20260503012314 | 7 | 347 | 0.0 | 1.6 | 0.00 | 0.00 | 0.00 | 61 | 1010.4 |
| 20260503011810 | 7 | 353 | 1.6 | 1.6 | 0.00 | 0.00 | 0.00 | 60 | 1010.6 |
| 20260503011308 | 7 | 2 | 3.2 | 3.2 | 0.00 | 0.00 | 0.00 | 60 | 1010.3 |
| 20260503010804 | 7 | 359 | 4.8 | 4.8 | 0.00 | 0.00 | 0.00 | 59 | 1010.3 |
| 20260503010301 | 8 | 356 | 3.2 | 3.2 | 0.00 | 0.00 | 0.00 | 58 | 1010.1 |
| 20260503005758 | 8 | 317 | 3.2 | 4.8 | 0.00 | 0.00 | 0.00 | 59 | 1010.2 |
| 20260503005255 | 8 | 304 | 3.2 | 4.8 | 0.00 | 0.00 | 0.00 | 59 | 1009.8 |
| 20260503004751 | 8 | 347 | 3.2 | 3.2 | 0.00 | 0.00 | 0.00 | 59 | 1009.9 |
| 20260503004250 | 8 | 1 | 0.0 | 0.0 | 0.00 | 0.00 | 0.00 | 60 | 1009.8 |
| 20260503003746 | 8 | 3 | 0.0 | 0.0 | 0.00 | 0.00 | 0.00 | 60 | 1009.7 |
| 20260503003243 | 8 | 6 | 0.0 | 0.0 | 0.00 | 0.00 | 0.00 | 60 | 1009.6 |
| 20260503002740 | 8 | 353 | 0.0 | 1.6 | 0.00 | 0.00 | 0.00 | 62 | 1009.5 |
| 20260503002237 | 8 | 339 | 1.6 | 1.6 | 0.00 | 0.00 | 0.00 | 58 | 1009.3 |
| 20260503001733 | 8 | 338 | 1.6 | 1.6 | 0.00 | 0.00 | 0.00 | 58 | 1009.3 |
| 20260503001229 | 8 | 346 | 0.0 | 1.6 | 0.00 | 0.00 | 0.00 | 57 | 1009.3 |
| 20260503000728 | 8 | 324 | 1.6 | 3.2 | 0.00 | 0.00 | 0.00 | 58 | 1009.3 |